273P/Pons-Gambart (2012)

Japanese version
Home page
Updated on May 4, 2013

---------------------------------------------------------------------

* Profile

Designation 273P/2012 V4
Re-discovery Date November 7, 2012
Magnitude
Re-discoverer Rob Matson (SWAN/SOHO spacecraft images)

* Pictures

* Orbital Elements

Epoch 2012 Dec. 19.0 TT = JDT 2456280.5
T 2012 Dec. 19.67099 TT                                 MPC
q   0.8101824            (2000.0)            P               Q
n   0.00524011     Peri.   20.19162     +0.56424529     -0.69900374
a  32.8278357      Node   320.42916     -0.82000022     -0.53638939
e   0.9753203      Incl.  136.39602     -0.09605666     +0.47294841
P 188
From 277 observations 1827 June 21-2013 Feb. 21.

* Finding Charts

* Magnitudes Graph

        m1 = 9.0 + 5 log d + 20.0 log r(t - 10)

---------------------------------------------------------------------

The orbital elements are published on M.P.E.C. 2013-D50.
The charts are made with StellaNavigator Ver.8 (AstroArts).
The magnitudes graphs are made with Comet for Windows.

---------------------------------------------------------------------

Copyright(C) Seiichi Yoshida (comet@aerith.net). All rights reserved.